Location: Peebles
(55.6412°N, 3.1714°W)
Time: 15:15:50
(UTC+01:00)

Cosmos 1674 - Pass Details

Date: 26 September 2021
Orbit: 492 x 515 km, 82.5° (Epoch: 17 October)

Event Time Altitude Azimuth Distance (km) Brightness Sun altitude
Rises 20:13:46 0° 345° (NNW) 2,590 6.7 -11.1°
Reaches altitude 10° 20:15:54 10° 341° (NNW) 1,703 5.8 -11.4°
Maximum altitude 20:19:33 58° 263° (W) 586 3.3 -11.9°
Drops below altitude 10° 20:23:12 10° 184° (S) 1,696 5.2 -12.4°
Sets 20:25:20 0° 180° (S) 2,577 6.1 -12.6°
